Location: Bernay
(48.6766°N, 2.9386°E)
Time: 21:33:09
(UTC+00:00)

USA 238 DEB - Pass Details

Date: 12 January 2026
Orbit: 883 x 1328 km, 63.4° (Epoch: 10 January)

Event Time Altitude Azimuth Distance (km) Brightness Sun altitude
Rises 16:46:18 0° 315° (NW) 3,865 6.9 -5.2°
Reaches altitude 10° 16:49:02 10° 322° (NW) 2,973 6.2 -5.6°
Maximum altitude 16:55:49 43° 33° (NNE) 1,626 4.3 -6.6°
Drops below altitude 10° 17:03:13 10° 103° (ESE) 3,255 5.8 -7.7°
Sets 17:06:19 0° 110° (ESE) 4,265 6.4 -8.2°
